"Data set title: Gaging station water sample data. Usage: Event based table used with water chemistry collection from 12-May-2015 to 30-Sep-2015",,,,,,,,,,,,
,,,,,,,,,,,,,
"Site","Date","RecNum","SiteID","Flag_SiteID","LOGGERID","PROGID","VNOTCH_INST_0_0_01","Flag_VNOTCH_INST_0_0_01","SAMPLE_INST_0_0_01","Flag_SAMPLE_INST_0_0_01","STAGE_INST_0_0_01","Flag_STAGE_INST_0_0_01"
"","yyyy-MM-dd HH:mm:ss","count","","none","none","none","none","none","count","none","ft","none"
"nominal","datetime","nominal","data","code","nominal","nominal","data","code","data","code","data","code"
"GSWS10_123",2015-05-12 15:06:00,0,110.00,"",123,52628.0,0,"",1,"",0.0220,""
"GSWS10_123",2015-05-13 03:24:00,1,110.00,"",123,52628.0,0,"",2,"",0.0220,""
"GSWS10_123",2015-05-13 16:42:00,2,110.00,"",123,52628.0,0,"",3,"",0.0220,""
"GSWS10_123",2015-05-14 06:00:00,3,110.00,"",123,52628.0,0,"",4,"",0.0220,""
"GSWS10_123",2015-05-14 19:18:00,4,110.00,"",123,52628.0,0,"",5,"",0.0230,""
"GSWS10_123",2015-05-15 08:36:00,5,110.00,"",123,52628.0,0,"",6,"",0.0230,""
"GSWS10_123",2015-05-15 21:54:00,6,110.00,"",123,52628.0,0,"",7,"",0.0220,""
"GSWS10_123",2015-05-16 11:12:00,7,110.00,"",123,52628.0,0,"",8,"",0.0220,""
"GSWS10_123",2015-05-17 00:30:00,8,110.00,"",123,52628.0,0,"",9,"",0.0210,""
"GSWS10_123",2015-05-17 13:48:00,9,110.00,"",123,52628.0,0,"",10,"",0.0200,""
"GSWS10_123",2015-05-18 03:06:00,10,110.00,"",123,52628.0,0,"",11,"",0.0200,""
"GSWS10_123",2015-05-18 16:24:00,11,110.00,"",123,52628.0,0,"",12,"",0.0280,""
"GSWS10_123",2015-05-19 05:42:00,12,110.00,"",123,52628.0,0,"",13,"",0.0250,""
"GSWS10_123",2015-05-19 19:00:00,13,110.00,"",123,52628.0,0,"",14,"",0.0220,""
"GSWS10_123",2015-05-20 08:18:00,14,110.00,"",123,52628.0,0,"",15,"",0.0220,""
"GSWS10_123",2015-05-20 21:36:00,15,110.00,"",123,52628.0,0,"",16,"",0.0210,""
"GSWS10_123",2015-05-21 10:54:00,16,110.00,"",123,52628.0,0,"",17,"",0.0210,""
"GSWS10_123",2015-05-22 00:12:00,17,110.00,"",123,52628.0,0,"",18,"",0.0420,""
"GSWS10_123",2015-05-22 13:30:00,18,110.00,"",123,52628.0,0,"",19,"",0.0310,""
"GSWS10_123",2015-05-23 02:48:00,19,110.00,"",123,52628.0,0,"",20,"",0.0280,""
"GSWS10_123",2015-05-23 16:06:00,20,110.00,"",123,52628.0,0,"",21,"",0.0250,""
"GSWS10_123",2015-05-24 05:24:00,21,110.00,"",123,52628.0,0,"",22,"",0.0250,""
"GSWS10_123",2015-05-24 18:42:00,22,110.00,"",123,52628.0,0,"",23,"",0.0230,""
"GSWS10_123",2015-05-25 08:00:00,23,110.00,"",123,52628.0,0,"",24,"",0.0230,""
"GSWS10_123",2015-05-25 21:18:00,24,110.00,"",123,52628.0,0,"",25,"",0.0200,""
"GSWS10_123",2015-05-26 10:36:00,25,110.00,"",123,52628.0,0,"",26,"",0.0200,""
"GSWS10_123",2015-05-26 23:54:00,26,110.00,"",123,52628.0,0,"",27,"",0.0190,""
"GSWS10_123",2015-05-27 13:12:00,27,110.00,"",123,52628.0,0,"",28,"",0.0190,""
"GSWS10_123",2015-05-28 02:30:00,28,110.00,"",123,52628.0,0,"",29,"",0.0190,""
"GSWS10_123",2015-05-28 15:48:00,29,110.00,"",123,52628.0,0,"",30,"",0.0180,""
"GSWS10_123",2015-05-29 05:06:00,30,110.00,"",123,52628.0,0,"",31,"",0.0180,""
"GSWS10_123",2015-05-29 18:24:00,31,110.00,"",123,52628.0,0,"",32,"",0.0170,""
"GSWS10_123",2015-05-30 07:42:00,32,110.00,"",123,52628.0,0,"",33,"",0.0170,""
"GSWS10_123",2015-05-30 21:00:00,33,110.00,"",123,52628.0,0,"",34,"",0.0160,""
"GSWS10_123",2015-05-31 10:18:00,34,110.00,"",123,52628.0,0,"",35,"",0.0160,""
"GSWS10_123",2015-05-31 23:36:00,35,110.00,"",123,52628.0,0,"",36,"",0.0160,""
"GSWS10_123",2015-06-01 12:54:00,36,110.00,"",123,52628.0,0,"",37,"",0.0170,""
"GSWS10_123",2015-06-02 02:12:00,37,110.00,"",123,52628.0,0,"",38,"",0.0180,""
"GSWS10_123",2015-06-02 15:30:00,38,110.00,"",123,52628.0,0,"",39,"",0.0180,""
"GSWS10_123",2015-06-03 04:48:00,39,110.00,"",123,52628.0,0,"",40,"",0.0180,""
"GSWS10_123",2015-06-03 18:06:00,40,110.00,"",123,52628.0,0,"",41,"",0.0160,""
"GSWS10_123",2015-06-04 07:24:00,41,110.00,"",123,52628.0,0,"",42,"",0.0160,""
"GSWS10_123",2015-06-04 12:02:00,42,110.00,"",123,52628.0,0,"",43,"",0.0150,""
"GSWS10_123",2015-06-04 20:42:00,43,110.00,"",123,52628.0,0,"",1,"",0.0150,""
"GSWS10_123",2015-06-05 10:00:00,44,110.00,"",123,52628.0,0,"",2,"",0.0150,""
"GSWS10_123",2015-06-05 23:18:00,45,110.00,"",123,52628.0,0,"",3,"",0.0140,""
"GSWS10_123",2015-06-06 12:36:00,46,110.00,"",123,52628.0,0,"",4,"",0.0140,""
"GSWS10_123",2015-06-07 01:54:00,47,110.00,"",123,52628.0,0,"",5,"",0.0140,""
"GSWS10_123",2015-06-07 15:12:00,48,110.00,"",123,52628.0,0,"",6,"",0.0140,""
"GSWS10_123",2015-06-08 04:30:00,49,110.00,"",123,52628.0,0,"",7,"",0.0140,""
"GSWS10_123",2015-06-08 17:48:00,50,110.00,"",123,52628.0,0,"",8,"",0.0130,""
"GSWS10_123",2015-06-09 07:06:00,51,110.00,"",123,52628.0,0,"",9,"",0.0130,""
"GSWS10_123",2015-06-09 20:24:00,52,110.00,"",123,52628.0,0,"",10,"",0.0120,""
"GSWS10_123",2015-06-10 09:42:00,53,110.00,"",123,52628.0,0,"",11,"",0.0120,""
"GSWS10_123",2015-06-10 23:00:00,54,110.00,"",123,52628.0,0,"",12,"",0.0110,""
"GSWS10_123",2015-06-11 12:18:00,55,110.00,"",123,52628.0,0,"",13,"",0.0110,""
"GSWS10_123",2015-06-12 01:36:00,56,110.00,"",123,52628.0,0,"",14,"",0.0110,""
"GSWS10_123",2015-06-12 14:54:00,57,110.00,"",123,52628.0,0,"",15,"",0.0110,""
"GSWS10_123",2015-06-13 04:12:00,58,110.00,"",123,52628.0,0,"",16,"",0.0110,""
"GSWS10_123",2015-06-13 17:30:00,59,110.00,"",123,52628.0,0,"",17,"",0.0110,""
"GSWS10_123",2015-06-14 06:48:00,60,110.00,"",123,52628.0,0,"",18,"",0.0110,""
"GSWS10_123",2015-06-14 20:06:00,61,110.00,"",123,52628.0,0,"",19,"",0.0110,""
"GSWS10_123",2015-06-15 09:24:00,62,110.00,"",123,52628.0,0,"",20,"",0.0110,""
"GSWS10_123",2015-06-15 22:42:00,63,110.00,"",123,52628.0,0,"",21,"",0.0110,""
"GSWS10_123",2015-06-16 12:00:00,64,110.00,"",123,52628.0,0,"",22,"",0.0110,""
"GSWS10_123",2015-06-17 01:18:00,65,110.00,"",123,52628.0,0,"",23,"",0.0110,""
"GSWS10_123",2015-06-17 14:36:00,66,110.00,"",123,52628.0,0,"",24,"",0.0110,""
"GSWS10_123",2015-06-18 03:54:00,67,110.00,"",123,52628.0,0,"",25,"",0.0110,""
"GSWS10_123",2015-06-18 09:50:15,68,110.00,"",123,52628.0,1,"",26,"",0.1070,""
"GSWS10_123",2015-06-18 21:36:15,69,110.00,"",123,52628.0,1,"",26,"",0.0950,""
"GSWS10_123",2015-06-19 10:54:15,70,110.00,"",123,52628.0,1,"",27,"",0.1060,""
"GSWS10_123",2015-06-20 00:12:15,71,110.00,"",123,52628.0,1,"",28,"",0.0980,""
"GSWS10_123",2015-06-20 13:30:15,72,110.00,"",123,52628.0,1,"",29,"",0.0980,""
"GSWS10_123",2015-06-21 02:48:15,73,110.00,"",123,52628.0,1,"",30,"",0.1000,""
"GSWS10_123",2015-06-21 16:06:15,74,110.00,"",123,52628.0,1,"",31,"",0.0910,""
"GSWS10_123",2015-06-22 05:24:15,75,110.00,"",123,52628.0,1,"",32,"",0.1010,""
"GSWS10_123",2015-06-22 18:42:15,76,110.00,"",123,52628.0,1,"",33,"",0.0890,""
"GSWS10_123",2015-06-23 08:00:15,77,110.00,"",123,52628.0,1,"",34,"",0.1010,""
"GSWS10_123",2015-06-23 21:18:15,78,110.00,"",123,52628.0,1,"",1,"",0.0880,""
"GSWS10_123",2015-06-24 10:36:15,79,110.00,"",123,52628.0,1,"",2,"",0.0970,""
"GSWS10_123",2015-06-24 23:54:15,80,110.00,"",123,52628.0,1,"",3,"",0.0890,""
"GSWS10_123",2015-06-25 13:12:15,81,110.00,"",123,52628.0,1,"",4,"",0.0910,""
"GSWS10_123",2015-06-26 02:30:15,82,110.00,"",123,52628.0,1,"",5,"",0.0900,""
"GSWS10_123",2015-06-26 15:48:15,83,110.00,"",123,52628.0,1,"",6,"",0.0830,""
"GSWS10_123",2015-06-27 05:06:15,84,110.00,"",123,52628.0,1,"",7,"",0.0940,""
"GSWS10_123",2015-06-27 18:24:15,85,110.00,"",123,52628.0,1,"",8,"",0.0830,""
"GSWS10_123",2015-06-28 07:42:15,86,110.00,"",123,52628.0,1,"",9,"",0.0920,""
"GSWS10_123",2015-06-28 21:00:15,87,110.00,"",123,52628.0,1,"",10,"",0.0890,""
"GSWS10_123",2015-06-29 10:18:15,88,110.00,"",123,52628.0,1,"",11,"",0.0930,""
"GSWS10_123",2015-06-29 23:36:15,89,110.00,"",123,52628.0,1,"",12,"",0.0830,""
"GSWS10_123",2015-06-30 12:54:15,90,110.00,"",123,52628.0,1,"",13,"",0.0860,""
"GSWS10_123",2015-07-01 02:12:15,91,110.00,"",123,52628.0,1,"",14,"",0.0840,""
"GSWS10_123",2015-07-01 15:30:15,92,110.00,"",123,52628.0,1,"",15,"",0.0760,""
"GSWS10_123",2015-07-02 04:48:15,93,110.00,"",123,52628.0,1,"",16,"",0.0850,""
"GSWS10_123",2015-07-02 18:06:15,94,110.00,"",123,52628.0,1,"",17,"",0.0730,""
"GSWS10_123",2015-07-03 07:24:15,95,110.00,"",123,52628.0,1,"",18,"",0.0840,""
"GSWS10_123",2015-07-03 20:42:15,96,110.00,"",123,52628.0,1,"",19,"",0.0740,""
"GSWS10_123",2015-07-04 10:00:15,97,110.00,"",123,52628.0,1,"",20,"",0.0840,""
"GSWS10_123",2015-07-04 23:18:15,98,110.00,"",123,52628.0,1,"",21,"",0.0830,""
"GSWS10_123",2015-07-05 12:36:15,99,110.00,"",123,52628.0,1,"",22,"",0.0840,""
"GSWS10_123",2015-07-06 01:54:15,100,110.00,"",123,52628.0,1,"",23,"",0.0760,""
"GSWS10_123",2015-07-06 15:12:15,101,110.00,"",123,52628.0,1,"",24,"",0.0700,""
"GSWS10_123",2015-07-07 04:30:15,102,110.00,"",123,52628.0,1,"",25,"",0.0830,""
"GSWS10_123",2015-07-07 17:48:15,103,110.00,"",123,52628.0,1,"",26,"",0.0710,""
"GSWS10_123",2015-07-08 07:06:15,104,110.00,"",123,52628.0,1,"",27,"",0.0870,""
"GSWS10_123",2015-07-08 20:24:15,105,110.00,"",123,52628.0,1,"",28,"",0.0760,""
"GSWS10_123",2015-07-09 09:42:15,106,110.00,"",123,52628.0,1,"",29,"",0.0850,""
"GSWS10_123",2015-07-09 23:00:15,107,110.00,"",123,52628.0,1,"",30,"",0.0900,""
"GSWS10_123",2015-07-10 12:18:15,108,110.00,"",123,52628.0,1,"",31,"",0.0960,""
"GSWS10_123",2015-07-11 01:36:15,109,110.00,"",123,52628.0,1,"",32,"",0.0860,""
"GSWS10_123",2015-07-11 14:54:15,110,110.00,"",123,52628.0,1,"",33,"",0.0870,""
"GSWS10_123",2015-07-12 04:12:15,111,110.00,"",123,52628.0,1,"",34,"",0.0890,""
"GSWS10_123",2015-07-12 17:30:15,112,110.00,"",123,52628.0,1,"",35,"",0.0760,""
"GSWS10_123",2015-07-13 06:48:15,113,110.00,"",123,52628.0,1,"",36,"",0.0790,""
"GSWS10_123",2015-07-13 20:06:15,114,110.00,"",123,52628.0,1,"",37,"",0.0680,""
"GSWS10_123",2015-07-14 09:24:15,115,110.00,"",123,52628.0,1,"",38,"",0.0780,""
"GSWS10_123",2015-07-14 22:42:15,116,110.00,"",123,52628.0,1,"",39,"",0.0720,""
"GSWS10_123",2015-07-15 12:00:15,117,110.00,"",123,52628.0,1,"",40,"",0.0770,""
"GSWS10_123",2015-07-15 13:36:15,118,110.00,"",123,52628.0,1,"",41,"",0.0720,""
"GSWS10_123",2015-07-16 01:18:15,119,110.00,"",123,52628.0,1,"",1,"",0.0750,""
"GSWS10_123",2015-07-16 14:36:15,120,110.00,"",123,52628.0,1,"",2,"",0.0700,""
"GSWS10_123",2015-07-17 03:54:15,121,110.00,"",123,52628.0,1,"",3,"",0.0760,""
"GSWS10_123",2015-07-17 17:12:15,122,110.00,"",123,52628.0,1,"",4,"",0.0660,""
"GSWS10_123",2015-07-18 06:30:15,123,110.00,"",123,52628.0,1,"",5,"",0.0760,""
"GSWS10_123",2015-07-18 19:48:15,124,110.00,"",123,52628.0,1,"",6,"",0.0660,""
"GSWS10_123",2015-07-19 09:06:15,125,110.00,"",123,52628.0,1,"",7,"",0.0790,""
"GSWS10_123",2015-07-19 22:24:15,126,110.00,"",123,52628.0,1,"",8,"",0.0720,""
"GSWS10_123",2015-07-20 11:42:15,127,110.00,"",123,52628.0,1,"",9,"",0.0750,""
"GSWS10_123",2015-07-21 01:00:15,128,110.00,"",123,52628.0,1,"",10,"",0.0720,""
"GSWS10_123",2015-07-21 14:18:15,129,110.00,"",123,52628.0,1,"",11,"",0.0670,""
"GSWS10_123",2015-07-22 03:36:15,130,110.00,"",123,52628.0,1,"",12,"",0.0680,""
"GSWS10_123",2015-07-22 16:54:15,131,110.00,"",123,52628.0,1,"",13,"",0.0570,""
"GSWS10_123",2015-07-23 06:12:15,132,110.00,"",123,52628.0,1,"",14,"",0.0690,""
"GSWS10_123",2015-07-23 19:30:15,133,110.00,"",123,52628.0,1,"",15,"",0.0570,""
"GSWS10_123",2015-07-24 08:48:15,134,110.00,"",123,52628.0,1,"",16,"",0.0680,""
"GSWS10_123",2015-07-24 22:06:15,135,110.00,"",123,52628.0,1,"",17,"",0.0610,""
"GSWS10_123",2015-07-25 11:24:15,136,110.00,"",123,52628.0,1,"",18,"",0.0680,""
"GSWS10_123",2015-07-26 00:42:15,137,110.00,"",123,52628.0,1,"",19,"",0.0660,""
"GSWS10_123",2015-07-26 14:00:15,138,110.00,"",123,52628.0,1,"",20,"",0.0660,""
"GSWS10_123",2015-07-27 03:18:15,139,110.00,"",123,52628.0,1,"",21,"",0.0670,""
"GSWS10_123",2015-07-27 16:36:15,140,110.00,"",123,52628.0,1,"",22,"",0.0560,""
"GSWS10_123",2015-07-28 05:54:15,141,110.00,"",123,52628.0,1,"",23,"",0.0660,""
"GSWS10_123",2015-07-28 19:12:15,142,110.00,"",123,52628.0,1,"",24,"",0.0530,""
"GSWS10_123",2015-07-29 08:30:15,143,110.00,"",123,52628.0,1,"",25,"",0.0640,""
"GSWS10_123",2015-07-29 21:48:15,144,110.00,"",123,52628.0,1,"",26,"",0.0560,""
"GSWS10_123",2015-07-30 11:06:15,145,110.00,"",123,52628.0,1,"",27,"",0.0630,""
"GSWS10_123",2015-07-31 00:24:15,146,110.00,"",123,52628.0,1,"",28,"",0.0570,""
"GSWS10_123",2015-07-31 13:42:15,147,110.00,"",123,52628.0,1,"",29,"",0.0550,""
"GSWS10_123",2015-08-01 03:00:15,148,110.00,"",123,52628.0,1,"",30,"",0.0590,""
"GSWS10_123",2015-08-01 16:18:15,149,110.00,"",123,52628.0,1,"",31,"",0.0480,""
"GSWS10_123",2015-08-02 05:36:15,150,110.00,"",123,52628.0,1,"",32,"",0.0590,""
"GSWS10_123",2015-08-02 18:54:15,151,110.00,"",123,52628.0,1,"",33,"",0.0510,""
"GSWS10_123",2015-08-03 08:12:15,152,110.00,"",123,52628.0,1,"",34,"",0.0640,""
"GSWS10_123",2015-08-03 21:30:15,153,110.00,"",123,52628.0,1,"",1,"",0.0630,""
"GSWS10_123",2015-08-04 10:48:15,154,110.00,"",123,52628.0,1,"",2,"",0.0650,""
"GSWS10_123",2015-08-05 00:06:15,155,110.00,"",123,52628.0,1,"",3,"",0.0570,""
"GSWS10_123",2015-08-05 13:24:15,156,110.00,"",123,52628.0,1,"",4,"",0.0580,""
"GSWS10_123",2015-08-06 02:42:15,157,110.00,"",123,52628.0,1,"",5,"",0.0590,""
"GSWS10_123",2015-08-06 16:00:15,158,110.00,"",123,52628.0,1,"",6,"",0.0510,""
"GSWS10_123",2015-08-07 05:18:15,159,110.00,"",123,52628.0,1,"",7,"",0.0610,""
"GSWS10_123",2015-08-07 18:36:15,160,110.00,"",123,52628.0,1,"",8,"",0.0470,""
"GSWS10_123",2015-08-08 07:54:15,161,110.00,"",123,52628.0,1,"",9,"",0.0600,""
"GSWS10_123",2015-08-08 21:12:15,162,110.00,"",123,52628.0,1,"",10,"",0.0490,""
"GSWS10_123",2015-08-09 10:30:15,163,110.00,"",123,52628.0,1,"",11,"",0.0610,""
"GSWS10_123",2015-08-09 23:48:15,164,110.00,"",123,52628.0,1,"",12,"",0.0540,""
"GSWS10_123",2015-08-10 13:06:15,165,110.00,"",123,52628.0,1,"",13,"",0.0570,""
"GSWS10_123",2015-08-11 02:24:15,166,110.00,"",123,52628.0,1,"",14,"",0.0560,""
"GSWS10_123",2015-08-11 15:42:15,167,110.00,"",123,52628.0,1,"",15,"",0.0480,""
"GSWS10_123",2015-08-12 05:00:15,168,110.00,"",123,52628.0,1,"",16,"",0.0570,""
"GSWS10_123",2015-08-12 18:18:15,169,110.00,"",123,52628.0,1,"",17,"",0.0430,""
"GSWS10_123",2015-08-13 07:36:15,170,110.00,"",123,52628.0,1,"",18,"",0.0530,""
"GSWS10_123",2015-08-13 20:54:15,171,110.00,"",123,52628.0,1,"",19,"",0.0440,""
"GSWS10_123",2015-08-14 10:12:15,172,110.00,"",123,52628.0,1,"",20,"",0.0570,""
"GSWS10_123",2015-08-14 23:30:15,173,110.00,"",123,52628.0,1,"",21,"",0.0550,""
"GSWS10_123",2015-08-15 12:48:15,174,110.00,"",123,52628.0,1,"",22,"",0.0570,""
"GSWS10_123",2015-08-16 02:06:15,175,110.00,"",123,52628.0,1,"",23,"",0.0480,""
"GSWS10_123",2015-08-16 15:24:15,176,110.00,"",123,52628.0,1,"",24,"",0.0480,""
"GSWS10_123",2015-08-17 04:42:15,177,110.00,"",123,52628.0,1,"",25,"",0.0550,""
"GSWS10_123",2015-08-17 18:00:15,178,110.00,"",123,52628.0,1,"",26,"",0.0420,""
"GSWS10_123",2015-08-18 07:18:15,179,110.00,"",123,52628.0,1,"",27,"",0.0450,""
"GSWS10_123",2015-08-18 14:54:45,180,110.00,"",123,52628.0,1,"",28,"",0.0450,""
"GSWS10_123",2015-08-18 20:36:15,181,110.00,"",123,52628.0,1,"",28,"",0.0400,""
"GSWS10_123",2015-08-19 09:54:15,182,110.00,"",123,52628.0,1,"",29,"",0.0530,""
"GSWS10_123",2015-08-19 23:12:15,183,110.00,"",123,52628.0,1,"",30,"",0.0360,""
"GSWS10_123",2015-08-20 12:30:15,184,110.00,"",123,52628.0,1,"",31,"",0.0380,""
"GSWS10_123",2015-08-21 01:48:15,185,110.00,"",123,52628.0,1,"",32,"",0.0380,""
"GSWS10_123",2015-08-21 15:06:15,186,110.00,"",123,52628.0,1,"",33,"",0.0380,""
"GSWS10_123",2015-08-22 04:24:15,187,110.00,"",123,52628.0,1,"",34,"",0.0380,""
"GSWS10_123",2015-08-22 17:42:15,188,110.00,"",123,52628.0,1,"",35,"",0.0390,""
"GSWS10_123",2015-08-23 07:00:15,189,110.00,"",123,52628.0,1,"",36,"",0.0380,""
"GSWS10_123",2015-08-23 20:18:15,190,110.00,"",123,52628.0,1,"",37,"",0.0380,""
"GSWS10_123",2015-08-24 09:36:15,191,110.00,"",123,52628.0,1,"",38,"",0.0380,""
"GSWS10_123",2015-08-24 22:54:15,192,110.00,"",123,52628.0,1,"",39,"",0.0380,""
"GSWS10_123",2015-08-25 12:12:15,193,110.00,"",123,52628.0,1,"",40,"",0.0380,""
"GSWS10_123",2015-08-26 01:30:15,194,110.00,"",123,52628.0,1,"",1,"",0.0380,""
"GSWS10_123",2015-08-26 14:48:15,195,110.00,"",123,52628.0,1,"",2,"",0.0380,""
"GSWS10_123",2015-08-27 04:06:15,196,110.00,"",123,52628.0,1,"",3,"",0.0380,""
"GSWS10_123",2015-08-27 17:24:15,197,110.00,"",123,52628.0,1,"",4,"",0.0380,""
"GSWS10_123",2015-08-28 06:42:15,198,110.00,"",123,52628.0,1,"",5,"",0.0370,""
"GSWS10_123",2015-08-28 20:00:15,199,110.00,"",123,52628.0,1,"",6,"",0.0370,""
"GSWS10_123",2015-08-29 09:18:15,200,110.00,"",123,52628.0,1,"",7,"",0.0660,""
"GSWS10_123",2015-08-29 22:36:15,201,110.00,"",123,52628.0,1,"",8,"",0.0560,""
"GSWS10_123",2015-08-30 11:54:15,202,110.00,"",123,52628.0,1,"",9,"",0.0720,""
"GSWS10_123",2015-08-31 01:12:15,203,110.00,"",123,52628.0,1,"",10,"",0.0740,""
"GSWS10_123",2015-08-31 14:30:15,204,110.00,"",123,52628.0,1,"",11,"",0.0630,""
"GSWS10_123",2015-09-01 03:48:15,205,110.00,"",123,52628.0,1,"",12,"",0.0560,""
"GSWS10_123",2015-09-01 17:06:15,206,110.00,"",123,52628.0,1,"",13,"",0.0500,""
"GSWS10_123",2015-09-02 06:24:15,207,110.00,"",123,52628.0,1,"",14,"",0.0590,""
"GSWS10_123",2015-09-02 18:20:30,208,110.00,"",123,52628.0,1,"",15,"",0.1610,""
"GSWS10_123",2015-09-03 07:38:30,209,110.00,"",123,52628.0,1,"",16,"",0.0720,""
"GSWS10_123",2015-09-03 20:56:30,210,110.00,"",123,52628.0,1,"",17,"",0.0610,""
"GSWS10_123",2015-09-04 10:14:30,211,110.00,"",123,52628.0,1,"",18,"",0.0620,""
"GSWS10_123",2015-09-04 23:32:30,212,110.00,"",123,52628.0,1,"",19,"",0.0890,""
"GSWS10_123",2015-09-05 12:50:30,213,110.00,"",123,52628.0,1,"",20,"",0.0750,""
"GSWS10_123",2015-09-06 02:08:30,214,110.00,"",123,52628.0,1,"",21,"",0.0700,""
"GSWS10_123",2015-09-06 15:26:30,215,110.00,"",123,52628.0,1,"",22,"",0.0660,""
"GSWS10_123",2015-09-07 04:44:30,216,110.00,"",123,52628.0,1,"",23,"",0.0620,""
"GSWS10_123",2015-09-07 18:02:30,217,110.00,"",123,52628.0,1,"",24,"",0.0570,""
"GSWS10_123",2015-09-08 07:20:30,218,110.00,"",123,52628.0,1,"",25,"",0.0590,""
"GSWS10_123",2015-09-08 20:38:30,219,110.00,"",123,52628.0,1,"",26,"",0.0540,""
"GSWS10_123",2015-09-09 09:56:30,220,110.00,"",123,52628.0,1,"",27,"",0.0590,""
"GSWS10_123",2015-09-09 23:14:30,221,110.00,"",123,52628.0,1,"",28,"",0.0530,""
"GSWS10_123",2015-09-10 12:32:30,222,110.00,"",123,52628.0,1,"",29,"",0.0580,""
"GSWS10_123",2015-09-11 01:50:30,223,110.00,"",123,52628.0,1,"",30,"",0.0530,""
"GSWS10_123",2015-09-11 15:08:30,224,110.00,"",123,52628.0,1,"",31,"",0.0500,""
"GSWS10_123",2015-09-12 04:26:30,225,110.00,"",123,52628.0,1,"",32,"",0.0530,""
"GSWS10_123",2015-09-12 17:44:30,226,110.00,"",123,52628.0,1,"",33,"",0.0460,""
"GSWS10_123",2015-09-13 07:02:30,227,110.00,"",123,52628.0,1,"",34,"",0.0530,""
"GSWS10_123",2015-09-13 20:20:30,228,110.00,"",123,52628.0,1,"",35,"",0.0460,""
"GSWS10_123",2015-09-14 09:38:30,229,110.00,"",123,52628.0,1,"",36,"",0.0530,""
"GSWS10_123",2015-09-14 22:56:30,230,110.00,"",123,52628.0,1,"",37,"",0.0510,""
"GSWS10_123",2015-09-15 12:14:30,231,110.00,"",123,52628.0,1,"",38,"",0.0550,""
"GSWS10_123",2015-09-15 13:38:15,232,110.00,"",123,52628.0,1,"",39,"",0.0550,""
"GSWS10_123",2015-09-16 01:32:30,233,110.00,"",123,52628.0,1,"",1,"",0.0530,""
"GSWS10_123",2015-09-16 14:50:30,234,110.00,"",123,52628.0,1,"",2,"",0.0570,""
"GSWS10_123",2015-09-17 03:12:15,235,110.00,"",123,52628.0,1,"",3,"",0.1620,""
"GSWS10_123",2015-09-17 07:38:15,236,110.00,"",123,52628.0,1,"",4,"",0.2850,""
"GSWS10_123",2015-09-17 14:16:15,237,110.00,"",123,52628.0,1,"",5,"",0.1860,""
"GSWS10_123",2015-09-17 17:38:15,238,110.00,"",123,52628.0,1,"",6,"",0.3640,""
"GSWS10_123",2015-09-18 06:56:15,239,110.00,"",123,52628.0,1,"",7,"",0.0970,""
"GSWS10_123",2015-09-18 20:14:15,240,110.00,"",123,52628.0,1,"",8,"",0.0740,""
"GSWS10_123",2015-09-19 09:32:15,241,110.00,"",123,52628.0,1,"",9,"",0.0710,""
"GSWS10_123",2015-09-19 22:50:15,242,110.00,"",123,52628.0,1,"",10,"",0.0630,""
"GSWS10_123",2015-09-20 12:08:15,243,110.00,"",123,52628.0,1,"",11,"",0.0660,""
"GSWS10_123",2015-09-21 01:26:15,244,110.00,"",123,52628.0,1,"",12,"",0.0620,""
"GSWS10_123",2015-09-21 14:44:15,245,110.00,"",123,52628.0,1,"",13,"",0.0640,""
"GSWS10_123",2015-09-22 04:02:15,246,110.00,"",123,52628.0,1,"",14,"",0.0610,""
"GSWS10_123",2015-09-22 17:20:15,247,110.00,"",123,52628.0,1,"",15,"",0.0600,""
"GSWS10_123",2015-09-23 06:38:15,248,110.00,"",123,52628.0,1,"",16,"",0.0630,""
"GSWS10_123",2015-09-23 19:56:15,249,110.00,"",123,52628.0,1,"",17,"",0.0610,""
"GSWS10_123",2015-09-24 09:14:15,250,110.00,"",123,52628.0,1,"",18,"",0.0630,""
"GSWS10_123",2015-09-24 22:32:15,251,110.00,"",123,52628.0,1,"",19,"",0.0590,""
"GSWS10_123",2015-09-25 11:50:15,252,110.00,"",123,52628.0,1,"",20,"",0.0630,""
"GSWS10_123",2015-09-26 01:08:15,253,110.00,"",123,52628.0,1,"",21,"",0.0610,""
"GSWS10_123",2015-09-26 14:26:15,254,110.00,"",123,52628.0,1,"",22,"",0.0630,""
"GSWS10_123",2015-09-27 03:44:15,255,110.00,"",123,52628.0,1,"",23,"",0.0630,""
"GSWS10_123",2015-09-27 14:57:45,256,110.00,"",123,52628.0,1,"",24,"",0.0630,""
"GSWS10_123",2015-09-28 05:14:15,257,110.00,"",123,52628.0,1,"",25,"",0.0100,""
"GSWS10_123",2015-09-28 18:32:15,258,110.00,"",123,52628.0,0,"",26,"",0.0100,""
"GSWS10_123",2015-09-29 07:50:15,259,110.00,"",123,52628.0,0,"",27,"",0.0100,""
"GSWS10_123",2015-09-29 21:08:15,260,110.00,"",123,52628.0,0,"",28,"",0.0100,""
"GSWS10_123",2015-09-30 10:26:15,261,110.00,"",123,52628.0,0,"",29,"",0.0100,""
"GSWS10_123",2015-09-30 23:44:15,262,110.00,"",123,52628.0,0,"",30,"",0.0100,""
